Location: Hohe Wand Kleine Kanzel
(47.8330°N, 16.0170°E)
Time: 13:34:56
(UTC+02:00)

Courier 1B - All Passes

Search period start: 03 August 2021 00:00
Search period end: 13 August 2021 00:00
Orbit: 962 x 1209 km, 28.3° (Epoch: 02 August)

Date Brightness Start Highest point End Pass type
(mag) Time Alt. Az. Time Alt. Az. Time Alt. Az.
03 Aug - 19:01:13 10° SSW 19:04:40 13° SSE 19:08:07 10° SE daylight
03 Aug - 20:52:52 10° SW 20:57:32 17° S 21:02:08 10° SE visible
03 Aug - 22:47:17 10° SW 22:50:19 13° SSW 22:53:19 10° S visible
04 Aug - 18:08:52 10° S 18:11:07 11° SSE 18:13:23 10° SE daylight
04 Aug - 19:59:17 10° SSW 20:03:56 17° S 20:08:33 10° SE daylight
04 Aug - 21:52:52 10° SW 21:56:48 15° SSW 22:00:40 10° SSE visible
05 Aug - 19:05:55 10° SSW 19:10:21 16° S 19:14:46 10° SE daylight
05 Aug - 20:58:47 10° SW 21:03:13 16° S 21:07:37 10° SSE visible
06 Aug - 18:12:48 10° SSW 18:16:46 15° SSE 18:20:45 10° SE daylight
06 Aug - 20:04:58 10° SW 20:09:38 17° S 20:14:18 10° SSE daylight
06 Aug - 22:00:05 10° SW 22:02:26 11° SSW 22:04:46 10° S visible
07 Aug - 17:20:05 10° S 17:23:13 13° SSE 17:26:23 10° SE daylight
07 Aug - 19:11:20 10° SW 19:16:03 17° S 19:20:46 10° SE daylight
07 Aug - 21:05:21 10° SW 21:08:54 14° SSW 21:12:26 10° SSE visible
08 Aug - 16:28:21 10° S 16:29:42 10° SSE 16:31:03 10° SSE daylight
08 Aug - 18:17:54 10° SSW 18:22:27 17° S 18:27:03 10° SE daylight
08 Aug - 20:11:09 10° SW 20:15:20 15° S 20:19:31 10° SSE daylight
09 Aug - 17:24:43 10° SSW 17:28:53 16° S 17:33:06 10° SE daylight
09 Aug - 19:17:16 10° SW 19:21:44 16° S 19:26:16 10° SSE daylight
10 Aug - 16:31:49 10° SSW 16:35:20 14° SSE 16:38:54 10° SE daylight
10 Aug - 18:23:36 10° SW 18:28:10 17° S 18:32:48 10° SE daylight
10 Aug - 20:18:13 10° SW 20:20:59 12° SSW 20:23:46 10° S daylight
11 Aug - 15:39:29 10° S 15:41:49 12° SSE 15:44:12 10° SE daylight
11 Aug - 17:30:08 10° SW 17:34:35 17° S 17:39:08 10° SE daylight
11 Aug - 19:23:48 10° SW 19:27:27 14° SSW 19:31:07 10° SSE daylight
12 Aug - 16:36:52 10° SSW 16:41:02 16° S 16:45:17 10° SE daylight
12 Aug - 18:29:48 10° SW 18:33:53 15° S 18:38:00 10° SSE daylight
